Terug naar catalogus

ONEWEB-0085

ActiefCommunicatiePO
NORAD 45438·PAYLOAD·🇬🇧 United Kingdom

Gelanceerd Mar 21, 2020 vanaf Baikonur Cosmodrome

Loading…

Volgende Passages (komende 24 uur)

TLE

VersSource: CelesTrak SupGP

Epoch: Sep 14, 2026, 22:54 UTC

1 45438C 20020Q   26257.95430556 -.00002730  00000+0 -77120-2 0  2576
2 45438  87.8966   3.2206 0001778 103.0836 359.5176 13.11415133    17

Volg ONEWEB-0085 in realtime met AllMySat

Download on the App Store